| time (UTC) | temp C | wind direction | speed KPH | gust KPH | rain 1hr cm | rain 24hr cm | rain mn cm | humidity % | barometer mb |
| 20260504081723 | 11 | 25 | 1.6 | 4.8 | 0.00 | 2.06 | 1.75 | 83 | 1014.6 |
| 20260504081228 | 11 | 40 | 1.6 | 4.8 | 0.00 | 2.06 | 1.75 | 82 | 1014.5 |
| 20260504080723 | 11 | 59 | 3.2 | 8.0 | 0.00 | 2.06 | 1.75 | 82 | 1014.4 |
| 20260504080226 | 11 | 7 | 1.6 | 8.0 | 0.00 | 2.06 | 1.75 | 83 | 1014.3 |
| 20260504070217 | 12 | 38 | 1.6 | 6.4 | 0.00 | 2.06 | 1.75 | 90 | 1013.7 |
| 20260504060204 | 13 | 29 | 3.2 | 11.3 | 0.00 | 2.06 | 1.75 | 88 | 1013.8 |
| 20260504050702 | 13 | 47 | 3.2 | 9.7 | 0.03 | 2.06 | 1.75 | 89 | 1013.5 |
| 20260504050420 | 13 | 20 | 3.2 | 12.9 | 0.03 | 2.06 | 1.75 | 89 | 1013.5 |
| 20260504045918 | 14 | 19 | 3.2 | 11.3 | 0.03 | 2.06 | 1.75 | 89 | 1013.5 |
| 20260504045156 | 14 | 3 | 3.2 | 11.3 | 0.03 | 2.06 | 1.75 | 90 | 1013.4 |
| 20260504044649 | 14 | 54 | 3.2 | 9.7 | 0.05 | 2.06 | 1.75 | 91 | 1013.4 |
| 20260504044142 | 14 | 9 | 3.2 | 11.3 | 0.05 | 2.06 | 1.75 | 92 | 1013.5 |
| 20260504043637 | 14 | 59 | 3.2 | 11.3 | 0.05 | 2.06 | 1.75 | 92 | 1013.4 |
| 20260504043131 | 14 | 27 | 1.6 | 8.0 | 0.13 | 2.06 | 1.75 | 93 | 1013.4 |
| 20260504042624 | 14 | 359 | 0.0 | 6.4 | 0.13 | 2.06 | 1.75 | 93 | 1013.5 |
| 20260504042119 | 14 | 72 | 0.0 | 8.0 | 0.13 | 2.06 | 1.75 | 93 | 1013.4 |
| 20260504041613 | 14 | 286 | 1.6 | 8.0 | 0.13 | 2.06 | 1.75 | 93 | 1013.4 |
| 20260504041108 | 14 | 312 | 0.0 | 4.8 | 0.10 | 2.03 | 1.75 | 93 | 1013.2 |
| 20260504040602 | 14 | 50 | 0.0 | 3.2 | 0.10 | 2.03 | 1.75 | 93 | 1013.5 |
| 20260504040054 | 14 | 295 | 1.6 | 6.4 | 0.10 | 2.03 | 1.75 | 93 | 1013.4 |
| 20260504035811 | 14 | 304 | 1.6 | 9.7 | 0.10 | 2.03 | 1.75 | 93 | 1013.2 |
| 20260504035042 | 14 | 80 | 1.6 | 9.7 | 0.10 | 2.03 | 1.75 | 92 | 1013.2 |
| 20260504034537 | 15 | 22 | 1.6 | 9.7 | 0.05 | 2.01 | 1.73 | 92 | 1013.4 |
| 20260504034030 | 15 | 337 | 3.2 | 20.9 | 0.05 | 2.01 | 1.70 | 92 | 1013.2 |
| 20260504033524 | 15 | 24 | 1.6 | 20.9 | 0.05 | 2.01 | 1.70 | 91 | 1013.1 |
| 20260504033020 | 15 | 33 | 1.6 | 9.7 | 0.00 | 1.93 | 1.65 | 91 | 1013.2 |
| 20260504032512 | 15 | 56 | 3.2 | 9.7 | 0.00 | 1.93 | 1.65 | 91 | 1013.2 |
| 20260504032006 | 15 | 36 | 3.2 | 9.7 | 0.00 | 1.93 | 1.65 | 91 | 1013.2 |
| 20260504031501 | 15 | 57 | 1.6 | 8.0 | 0.00 | 1.93 | 1.65 | 91 | 1013.2 |
| 20260504030954 | 15 | 51 | 1.6 | 8.0 | 0.00 | 1.93 | 1.65 | 91 | 1013.2 |
| 20260504030448 | 15 | 288 | 3.2 | 12.9 | 0.00 | 1.93 | 1.65 | 91 | 1013.4 |
| 20260504025944 | 15 | 301 | 3.2 | 12.9 | 0.00 | 1.93 | 1.65 | 91 | 1013.4 |
| 20260504025437 | 15 | 297 | 1.6 | 9.7 | 0.00 | 1.93 | 1.65 | 91 | 1013.4 |
| 20260504024930 | 15 | 358 | 3.2 | 17.7 | 0.00 | 1.93 | 1.65 | 91 | 1013.4 |
| 20260504024424 | 15 | 286 | 3.2 | 17.7 | 0.00 | 1.93 | 1.65 | 91 | 1013.5 |
| 20260504023918 | 15 | 57 | 3.2 | 12.9 | 0.00 | 1.93 | 1.65 | 91 | 1013.6 |
| 20260504023412 | 15 | 3 | 3.2 | 11.3 | 0.00 | 1.93 | 1.65 | 91 | 1013.7 |
| 20260504022906 | 15 | 299 | 3.2 | 14.5 | 0.00 | 1.93 | 1.65 | 91 | 1013.7 |
| 20260504022400 | 15 | 54 | 3.2 | 19.3 | 0.00 | 1.93 | 1.65 | 92 | 1013.8 |
| 20260504021853 | 15 | 27 | 1.6 | 19.3 | 0.00 | 1.93 | 1.65 | 92 | 1013.9 |
| 20260504021355 | 15 | 292 | 3.2 | 11.3 | 0.00 | 1.93 | 1.65 | 93 | 1013.9 |
| 20260504020852 | 15 | 348 | 3.2 | 11.3 | 0.00 | 1.93 | 1.65 | 93 | 1013.9 |
| 20260504020616 | 15 | 50 | 3.2 | 12.9 | 0.00 | 1.93 | 1.65 | 93 | 1014.1 |
| 20260504020116 | 15 | 76 | 3.2 | 14.5 | 0.00 | 1.93 | 1.65 | 93 | 1014.3 |
| 20260504015350 | 15 | 14 | 1.6 | 14.5 | 0.00 | 1.93 | 1.65 | 94 | 1014.4 |
| 20260504014849 | 15 | 281 | 3.2 | 14.5 | 0.00 | 1.93 | 1.65 | 93 | 1014.3 |
| 20260504014349 | 15 | 7 | 3.2 | 14.5 | 0.00 | 1.93 | 1.65 | 94 | 1014.4 |
| 20260504013848 | 15 | 355 | 3.2 | 14.5 | 0.00 | 1.93 | 1.65 | 94 | 1014.2 |
| 20260504013609 | 15 | 293 | 3.2 | 16.1 | 0.03 | 1.93 | 1.65 | 94 | 1014.6 |
| 20260504012846 | 15 | 306 | 4.8 | 19.3 | 0.03 | 1.93 | 1.65 | 94 | 1014.6 |
| 20260504012346 | 15 | 58 | 4.8 | 19.3 | 0.05 | 1.93 | 1.65 | 94 | 1014.6 |
| 20260504011846 | 15 | 345 | 3.2 | 27.4 | 0.13 | 1.93 | 1.65 | 94 | 1014.7 |
| 20260504011346 | 15 | 69 | 3.2 | 27.4 | 0.15 | 1.93 | 1.65 | 94 | 1014.7 |
| 20260504010846 | 15 | 244 | 3.2 | 14.5 | 0.15 | 1.93 | 1.65 | 94 | 1014.7 |
| 20260504010347 | 15 | 25 | 4.8 | 14.5 | 0.15 | 1.93 | 1.65 | 94 | 1014.7 |
| 20260504010105 | 15 | 299 | 3.2 | 17.7 | 0.15 | 1.93 | 1.65 | 94 | 1014.8 |
| 20260504005346 | 15 | 329 | 4.8 | 24.1 | 0.15 | 1.93 | 1.65 | 94 | 1014.8 |
| 20260504004846 | 15 | 104 | 8.0 | 24.1 | 0.15 | 1.93 | 1.65 | 94 | 1014.7 |
| 20260504004341 | 15 | 64 | 4.8 | 20.9 | 0.23 | 1.93 | 1.65 | 94 | 1014.7 |
| 20260504003838 | 15 | 118 | 4.8 | 14.5 | 0.28 | 1.93 | 1.65 | 95 | 1014.8 |
| 20260504003338 | 15 | 69 | 6.4 | 16.1 | 0.28 | 1.93 | 1.63 | 95 | 1014.8 |
| 20260504002837 | 15 | 337 | 6.4 | 16.1 | 0.30 | 1.93 | 1.63 | 95 | 1015.0 |
| 20260504002601 | 15 | 294 | 3.2 | 16.1 | 0.28 | 1.91 | 1.60 | 95 | 1015.0 |
| 20260504001836 | 15 | 294 | 3.2 | 17.7 | 0.23 | 1.83 | 1.52 | 95 | 1015.1 |
| 20260504001336 | 15 | 40 | 4.8 | 17.7 | 0.23 | 1.80 | 1.50 | 95 | 1015.0 |
| 20260504000834 | 15 | 44 | 3.2 | 19.3 | 0.23 | 1.80 | 1.50 | 95 | 1015.0 |
| 20260504000334 | 15 | 347 | 3.2 | 19.3 | 0.23 | 1.80 | 1.50 | 95 | 1014.8 |
| 20260503235835 | 15 | 18 | 3.2 | 12.9 | 0.23 | 1.80 | 1.50 | 95 | 1015.1 |
| 20260503235334 | 15 | 235 | 1.6 | 8.0 | 0.23 | 1.78 | 1.47 | 95 | 1014.8 |
| 20260503234834 | 15 | 313 | 1.6 | 8.0 | 0.25 | 1.78 | 1.47 | 95 | 1015.1 |
| 20260503234333 | 15 | 56 | 0.0 | 3.2 | 0.25 | 1.73 | 1.45 | 95 | 1015.2 |
| 20260503233832 | 15 | 52 | 0.0 | 8.0 | 0.25 | 1.65 | 1.37 | 95 | 1015.2 |
| 20260503233330 | 15 | 344 | 1.6 | 8.0 | 0.28 | 1.65 | 1.35 | 95 | 1015.2 |
| 20260503232827 | 15 | 64 | 1.6 | 12.9 | 0.33 | 1.63 | 1.32 | 95 | 1015.1 |
| 20260503232326 | 15 | 271 | 3.2 | 12.9 | 0.51 | 1.63 | 1.32 | 95 | 1015.3 |
| 20260503231826 | 15 | 265 | 4.8 | 16.1 | 0.51 | 1.60 | 1.30 | 95 | 1015.1 |
| 20260503231326 | 15 | 296 | 4.8 | 17.7 | 0.53 | 1.57 | 1.27 | 95 | 1015.2 |
| 20260503230827 | 15 | 267 | 3.2 | 17.7 | 0.66 | 1.57 | 1.27 | 95 | 1015.2 |
| 20260503230327 | 15 | 354 | 1.6 | 12.9 | 0.69 | 1.57 | 1.27 | 95 | 1015.2 |
| 20260503225826 | 15 | 37 | 1.6 | 12.9 | 0.69 | 1.55 | 1.27 | 95 | 1015.2 |
| 20260503225326 | 15 | 327 | 1.6 | 4.8 | 0.66 | 1.55 | 1.24 | 95 | 1015.2 |
| 20260503224826 | 15 | 94 | 0.0 | 9.7 | 0.64 | 1.52 | 1.22 | 95 | 1015.3 |
| 20260503224326 | 15 | 316 | 1.6 | 14.5 | 0.58 | 1.45 | 1.17 | 95 | 1015.2 |
| 20260503223825 | 14 | 94 | 1.6 | 14.5 | 0.51 | 1.40 | 1.09 | 95 | 1015.2 |
| 20260503223326 | 15 | 41 | 1.6 | 8.0 | 0.48 | 1.37 | 1.07 | 95 | 1015.1 |
| 20260503222827 | 14 | 310 | 1.6 | 8.0 | 0.43 | 1.30 | 0.99 | 95 | 1015.1 |
| 20260503222325 | 14 | 12 | 1.6 | 8.0 | 0.23 | 1.12 | 0.84 | 95 | 1015.1 |
| 20260503221826 | 15 | 93 | 1.6 | 9.7 | 0.20 | 1.09 | 0.79 | 94 | 1015.2 |
| 20260503221326 | 15 | 292 | 1.6 | 12.9 | 0.15 | 1.04 | 0.74 | 94 | 1015.1 |
| 20260503220826 | 15 | 40 | 3.2 | 12.9 | 0.05 | 0.91 | 0.64 | 94 | 1015.1 |
| 20260503220327 | 15 | 58 | 3.2 | 9.7 | 0.03 | 0.89 | 0.61 | 94 | 1015.1 |
| 20260503215826 | 15 | 290 | 1.6 | 8.0 | 0.00 | 0.89 | 0.58 | 94 | 1015.0 |
| 20260503215326 | 15 | 157 | 3.2 | 11.3 | 0.00 | 0.89 | 0.58 | 94 | 1015.0 |
| 20260503214826 | 14 | 81 | 4.8 | 12.9 | 0.00 | 0.89 | 0.58 | 95 | 1015.1 |
| 20260503214325 | 14 | 43 | 3.2 | 12.9 | 0.00 | 0.89 | 0.58 | 95 | 1015.1 |
| 20260503214046 | 14 | 50 | 1.6 | 12.9 | 0.03 | 0.89 | 0.58 | 95 | 1015.0 |
| 20260503213324 | 14 | 288 | 3.2 | 12.9 | 0.03 | 0.89 | 0.58 | 95 | 1015.0 |
| 20260503212824 | 14 | 337 | 3.2 | 11.3 | 0.03 | 0.91 | 0.58 | 95 | 1014.8 |
| 20260503212322 | 14 | 31 | 3.2 | 11.3 | 0.03 | 0.91 | 0.58 | 95 | 1014.8 |
| 20260503211821 | 14 | 339 | 3.2 | 12.9 | 0.05 | 0.91 | 0.58 | 95 | 1014.7 |
| 20260503211322 | 14 | 29 | 3.2 | 12.9 | 0.05 | 0.91 | 0.58 | 95 | 1014.8 |
| 20260503210821 | 14 | 44 | 3.2 | 11.3 | 0.05 | 0.91 | 0.58 | 95 | 1014.7 |
| 20260503210321 | 14 | 83 | 1.6 | 11.3 | 0.05 | 0.91 | 0.58 | 95 | 1014.7 |
| 20260503205807 | 14 | 51 | 0.0 | 9.7 | 0.05 | 0.91 | 0.58 | 96 | 1014.6 |
| 20260503205301 | 14 | 312 | 1.6 | 9.7 | 0.05 | 0.91 | 0.58 | 96 | 1014.6 |
| 20260503204800 | 14 | 349 | 1.6 | 8.0 | 0.05 | 0.91 | 0.58 | 96 | 1014.5 |
| 20260503204249 | 14 | 299 | 1.6 | 6.4 | 0.13 | 0.91 | 0.58 | 96 | 1014.5 |
| 20260503203749 | 14 | 285 | 1.6 | 8.0 | 0.13 | 0.89 | 0.56 | 96 | 1014.5 |
| 20260503203249 | 13 | 43 | 0.0 | 8.0 | 0.13 | 0.89 | 0.56 | 96 | 1014.4 |
| 20260503202747 | 13 | 337 | 0.0 | 1.6 | 0.13 | 0.89 | 0.56 | 95 | 1014.4 |
| 20260503202243 | 13 | 55 | 0.0 | 1.6 | 0.15 | 0.89 | 0.56 | 95 | 1014.3 |
| 20260503201744 | 13 | 63 | 0.0 | 1.6 | 0.13 | 0.89 | 0.53 | 95 | 1014.2 |
| 20260503201242 | 13 | 63 | 0.0 | 4.8 | 0.13 | 0.89 | 0.53 | 95 | 1014.4 |
| 20260503200743 | 13 | 339 | 0.0 | 4.8 | 0.13 | 0.89 | 0.53 | 95 | 1014.5 |
| 20260503200243 | 13 | 78 | 0.0 | 3.2 | 0.13 | 0.89 | 0.53 | 95 | 1014.3 |
| 20260503195744 | 13 | 301 | 0.0 | 4.8 | 0.13 | 0.89 | 0.53 | 95 | 1014.5 |
| 20260503195458 | 13 | 40 | 0.0 | 4.8 | 0.10 | 0.86 | 0.51 | 95 | 1014.4 |
| 20260503194959 | 13 | 22 | 1.6 | 9.7 | 0.10 | 0.86 | 0.51 | 95 | 1014.5 |
| 20260503194239 | 13 | 355 | 1.6 | 9.7 | 0.05 | 0.79 | 0.46 | 95 | 1014.6 |
| 20260503193742 | 13 | 40 | 1.6 | 9.7 | 0.03 | 0.79 | 0.46 | 95 | 1014.5 |
| 20260503193241 | 13 | 254 | 1.6 | 8.0 | 0.03 | 0.79 | 0.43 | 95 | 1014.4 |
| 20260503192741 | 13 | 28 | 3.2 | 11.3 | 0.03 | 0.79 | 0.43 | 95 | 1014.4 |
| 20260503192240 | 13 | 338 | 3.2 | 11.3 | 0.00 | 0.76 | 0.43 | 95 | 1014.5 |
| 20260503191741 | 13 | 347 | 3.2 | 12.9 | 0.00 | 0.76 | 0.43 | 95 | 1014.6 |
| 20260503191240 | 13 | 349 | 3.2 | 12.9 | 0.00 | 0.76 | 0.43 | 95 | 1014.5 |
| 20260503190734 | 13 | 29 | 1.6 | 6.4 | 0.00 | 0.76 | 0.43 | 95 | 1014.6 |
| 20260503190451 | 13 | 44 | 1.6 | 6.4 | 0.03 | 0.76 | 0.43 | 95 | 1014.7 |
| 20260503185721 | 13 | 39 | 1.6 | 6.4 | 0.03 | 0.76 | 0.43 | 95 | 1014.7 |
| 20260503185217 | 13 | 3 | 1.6 | 9.7 | 0.03 | 0.76 | 0.43 | 95 | 1014.7 |
| 20260503184710 | 14 | 51 | 3.2 | 11.3 | 0.03 | 0.76 | 0.43 | 95 | 1014.6 |
| 20260503184428 | 14 | 67 | 3.2 | 11.3 | 0.03 | 0.76 | 0.43 | 95 | 1014.7 |
| 20260503183659 | 14 | 14 | 1.6 | 11.3 | 0.03 | 0.76 | 0.43 | 95 | 1015.0 |
| 20260503183153 | 14 | 284 | 1.6 | 8.0 | 0.03 | 0.76 | 0.43 | 95 | 1015.1 |
| 20260503182648 | 14 | 28 | 1.6 | 8.0 | 0.03 | 0.76 | 0.43 | 95 | 1015.1 |
| 20260503182140 | 14 | 353 | 1.6 | 9.7 | 0.03 | 0.76 | 0.43 | 95 | 1015.1 |
| 20260503181635 | 14 | 55 | 1.6 | 9.7 | 0.05 | 0.76 | 0.43 | 95 | 1015.2 |
| 20260503181128 | 14 | 299 | 1.6 | 8.0 | 0.10 | 0.76 | 0.43 | 95 | 1015.2 |
| 20260503180623 | 14 | 23 | 0.0 | 8.0 | 0.15 | 0.76 | 0.43 | 95 | 1015.3 |
| 20260503180341 | 14 | 5 | 0.0 | 6.4 | 0.13 | 0.74 | 0.41 | 95 | 1015.2 |
| 20260503175609 | 14 | 322 | 0.0 | 4.8 | 0.15 | 0.74 | 0.41 | 95 | 1015.3 |
| 20260503175328 | 14 | 306 | 1.6 | 9.7 | 0.15 | 0.74 | 0.41 | 95 | 1015.3 |
| 20260503174557 | 14 | 39 | 1.6 | 9.7 | 0.15 | 0.74 | 0.41 | 95 | 1015.3 |
| 20260503174052 | 14 | 276 | 1.6 | 12.9 | 0.15 | 0.74 | 0.41 | 95 | 1015.3 |
| 20260503173545 | 14 | 343 | 3.2 | 12.9 | 0.15 | 0.74 | 0.41 | 95 | 1015.3 |
| 20260503173039 | 14 | 40 | 3.2 | 14.5 | 0.15 | 0.74 | 0.41 | 95 | 1015.2 |
| 20260503172533 | 14 | 294 | 4.8 | 14.5 | 0.18 | 0.74 | 0.41 | 95 | 1015.1 |
| 20260503172027 | 14 | 47 | 3.2 | 14.5 | 0.15 | 0.71 | 0.41 | 95 | 1015.1 |
| 20260503171521 | 14 | 10 | 4.8 | 14.5 | 0.15 | 0.71 | 0.36 | 95 | 1015.3 |
| 20260503171016 | 14 | 36 | 3.2 | 12.9 | 0.10 | 0.64 | 0.33 | 95 | 1015.5 |
| 20260503170509 | 14 | 8 | 3.2 | 14.5 | 0.10 | 0.61 | 0.28 | 95 | 1015.6 |
| 20260503150751 | 15 | 26 | 3.2 | 9.7 | 0.13 | 0.48 | 0.15 | 94 | 1016.5 |
| 20260503150508 | 15 | 78 | 3.2 | 9.7 | 0.13 | 0.48 | 0.15 | 94 | 1016.5 |
| 20260503140246 | 15 | 28 | 1.6 | 9.7 | 0.05 | 0.36 | 0.03 | 94 | 1016.9 |
| 20260503131151 | 15 | 342 | 0.0 | 6.4 | 0.03 | 0.33 | 0.33 | 92 | 1017.1 |
| 20260503130646 | 15 | 26 | 0.0 | 6.4 | 0.03 | 0.33 | 0.33 | 92 | 1017.2 |
| 20260503130139 | 15 | 40 | 1.6 | 6.4 | 0.03 | 0.33 | 0.33 | 92 | 1017.2 |
| 20260503110539 | 15 | 47 | 0.0 | 0.0 | 0.03 | 0.30 | 0.30 | 94 | 1017.6 |
| 20260503090504 | 15 | 292 | 0.0 | 6.4 | 0.08 | 0.13 | 0.13 | 91 | 1017.6 |